K9JWM Weather Reports


time (UTC)temp
C
wind
direction
speed
KPH
gust
KPH
rain 1hr
cm
rain 24hr
cm
rain mn
cm
humidity
%
barometer
mb
20260504160210 12 264 29.0 41.8 0.00 0.00 0.00 57 993.3
20260504150210 12 251 25.7 41.8 0.00 0.00 0.00 58 992.6
20260504141005 13 256 9.7 33.8 0.00 0.00 0.00 61 991.8
20260504140209 13 255 12.9 20.9 0.00 0.00 0.00 61 992.0
20260504130210 15 250 22.5 37.0 0.00 0.00 0.00 44 991.1
20260504120210 14 232 27.4 32.2 0.00 0.00 0.00 45 990.6
20260504110210 13 213 11.3 16.1 0.00 0.00 0.00 46 990.9
20260504100209 12 222 11.3 14.5 0.00 0.00 0.00 50 992.3
20260504081711 12 225 12.9 14.5 0.00 0.00 0.00 45 994.7
20260504081004 12 231 11.3 19.3 0.00 0.00 0.00 46 994.9
20260504050004 12 227 9.7 14.5 0.00 0.00 0.00 47 999.0
20260504045005 12 218 9.7 16.1 0.00 0.00 0.00 46 999.2
20260504044710 11 213 9.7 12.9 0.00 0.00 0.00 46 999.2
20260504044005 11 231 11.3 16.1 0.00 0.00 0.00 49 999.3
20260504043004 11 220 4.8 12.9 0.00 0.00 0.00 55 999.4
20260504042004 10 212 6.4 11.3 0.00 0.00 0.00 55 999.6
20260504041710 10 230 4.8 11.3 0.00 0.00 0.00 52 999.6
20260504040004 9 207 3.2 11.3 0.00 0.00 0.00 54 999.9
20260504034709 9 217 3.2 4.8 0.00 0.00 0.00 59 1000.3
20260504033005 10 216 3.2 9.7 0.00 0.00 0.00 65 1000.8
20260504032005 10 229 4.8 8.0 0.00 0.00 0.00 63 1000.9
20260504031710 10 225 4.8 4.8 0.00 0.00 0.00 63 1000.9
20260504025005 11 236 3.2 4.8 0.00 0.00 0.00 60 1001.2
20260504024710 11 265 1.6 3.2 0.00 0.00 0.00 60 1001.3
20260504024005 11 267 0.0 0.0 0.00 0.00 0.00 59 1001.3
20260504023005 11 267 0.0 0.0 0.00 0.00 0.00 57 1001.4
20260504022005 12 267 0.0 0.0 0.00 0.00 0.00 52 1001.4
20260504021710 12 267 0.0 0.0 0.00 0.00 0.00 49 1001.4
20260504021005 12 267 0.0 0.0 0.00 0.00 0.00 46 1001.5
20260504020004 12 267 0.0 0.0 0.00 0.00 0.00 43 1001.3
20260504015005 13 267 0.0 0.0 0.00 0.00 0.00 39 1001.3
20260504014710 13 267 0.0 0.0 0.00 0.00 0.00 39 1001.3
20260504013005 15 267 1.6 8.0 0.00 0.00 0.00 37 1001.5
20260504012004 15 258 1.6 4.8 0.00 0.00 0.00 36 1001.5
20260504011709 15 258 0.0 4.8 0.00 0.00 0.00 37 1001.6
20260504011005 16 258 3.2 4.8 0.00 0.00 0.00 35 1001.6
20260504010211 16 257 1.6 4.8 0.00 0.00 0.00 34 1001.5
20260504005005 16 267 1.6 8.0 0.00 0.00 0.00 33 1001.6
20260504004709 16 268 3.2 4.8 0.00 0.00 0.00 33 1001.6
20260504003005 16 279 3.2 14.5 0.00 0.00 0.00 33 1001.6
20260504002004 17 294 8.0 20.9 0.00 0.00 0.00 31 1001.8
20260504001709 17 260 8.0 11.3 0.00 0.00 0.00 31 1001.8
20260504001004 17 271 8.0 20.9 0.00 0.00 0.00 29 1001.8
20260504000004 17 252 4.8 14.5 0.00 0.00 0.00 30 1001.9
20260503235004 17 278 6.4 20.9 0.00 0.00 0.00 29 1002.0
20260503234710 17 272 4.8 8.0 0.00 0.00 0.00 30 1001.9
20260503232005 17 268 4.8 19.3 0.00 0.00 0.00 27 1001.9
20260503231710 17 282 8.0 19.3 0.00 0.00 0.00 27 1002.0
20260503230004 17 247 4.8 16.1 0.00 0.00 0.00 26 1002.0
20260503225005 17 272 4.8 24.1 0.00 0.00 0.00 24 1002.0
20260503224709 17 288 3.2 16.1 0.00 0.00 0.00 25 1001.9
20260503224004 17 252 8.0 27.4 0.00 0.00 0.00 27 1001.9
20260503223004 17 165 3.2 20.9 0.00 0.00 0.00 23 1002.0
20260503222005 17 254 6.4 24.1 0.00 0.00 0.00 28 1002.1
20260503221710 17 219 4.8 4.8 0.00 0.00 0.00 25 1002.0
20260503221004 17 270 11.3 24.1 0.00 0.00 0.00 22 1001.9
20260503215005 17 269 11.3 25.7 0.00 0.00 0.00 24 1002.0
20260503214710 17 288 11.3 19.3 0.00 0.00 0.00 24 1002.1
20260503212005 18 300 11.3 27.4 0.00 0.00 0.00 26 1001.9
20260503211709 17 284 9.7 19.3 0.00 0.00 0.00 24 1002.0
20260503211004 18 304 11.3 25.7 0.00 0.00 0.00 24 1001.9
20260503210005 18 272 8.0 25.7 0.00 0.00 0.00 24 1001.9
20260503204710 17 271 16.1 27.4 0.00 0.00 0.00 28 1002.1
20260503204004 17 254 19.3 29.0 0.00 0.00 0.00 27 1002.1
20260503203209 18 289 9.7 22.5 0.00 0.00 0.00 28 1002.1
20260503203004 18 326 11.3 24.1 0.00 0.00 0.00 28 1001.9
20260503202004 17 252 11.3 27.4 0.00 0.00 0.00 33 1002.3
20260503201709 17 295 16.1 22.5 0.00 0.00 0.00 32 1002.3
20260503201004 17 275 22.5 40.2 0.00 0.00 0.00 31 1002.3
20260503200004 18 263 12.9 25.7 0.00 0.00 0.00 32 1002.2
20260503195005 17 337 11.3 33.8 0.00 0.00 0.00 34 1002.1
20260503194710 17 247 8.0 9.7 0.00 0.00 0.00 32 1002.2
20260503194004 18 263 14.5 25.7 0.00 0.00 0.00 31 1002.4
20260503193004 17 279 11.3 37.0 0.00 0.00 0.00 32 1002.4
20260503191709 17 261 14.5 24.1 0.00 0.00 0.00 33 1002.6
20260503191004 17 293 16.1 35.4 0.00 0.00 0.00 35 1002.6
20260503185004 17 256 9.7 27.4 0.00 0.00 0.00 37 1002.7
20260503184710 17 268 11.3 11.3 0.00 0.00 0.00 38 1002.7
20260503183004 17 254 8.0 22.5 0.00 0.00 0.00 36 1002.8
20260503182005 17 260 11.3 27.4 0.00 0.00 0.00 39 1002.9
20260503181710 17 262 12.9 16.1 0.00 0.00 0.00 37 1003.0
20260503181005 17 273 3.2 24.1 0.00 0.00 0.00 39 1002.8
20260503180005 17 260 16.1 27.4 0.00 0.00 0.00 39 1003.2
20260503175004 16 281 11.3 29.0 0.00 0.00 0.00 40 1003.3
20260503174710 17 257 16.1 25.7 0.00 0.00 0.00 38 1003.2
20260503174004 17 318 6.4 24.1 0.00 0.00 0.00 43 1003.2
20260503173004 16 346 9.7 27.4 0.00 0.00 0.00 42 1003.3
20260503171710 16 248 16.1 24.1 0.00 0.00 0.00 44 1003.3